Sanford, FL

2:59 PM EDT on April 29, 2017 (GMT -0400)
Orlando Sanford

Weather History for KSFB - November, 2012

Change the Weather History Date:

Thursday, November 15, 2012

  Actual Average Record
Temperature  
Mean Temperature 62 °F -  
Max Temperature 64 °F 76 °F 87 °F (1958)
Min Temperature 59 °F 53 °F 34 °F (1969)
Degree Days  
Heating Degree Days 4    
Growing Degree Days 12 (Base 50)    
Moisture  
Dew Point 59 °F    
Average Humidity 90    
Maximum Humidity 100    
Minimum Humidity 82    
Precipitation  
Precipitation 0.00 in - - ()
Sea Level Pressure  
Sea Level Pressure 30.14 in    
Wind  
Wind Speed 7 mph (North)    
Max Wind Speed 13 mph    
Max Gust Speed -    
Visibility 6 miles    
Events      
Averages and records for this station are not official NWS values.
T = Trace of Precipitation, MM = Missing Value Source: NWS Daily Summary

Daily Weather History Graph

Daily Weather History Graph

Search for Another Location

Airport or City:

Trip Planner

Search our weather history database for the weather conditions in past years. The results will help you decide how hot, cold, wet, or windy it might be!

Date:

Astronomy

Nov. 15, 2012 Rise Set
Actual Time 6:48 AM EST 5:30 PM EST
Civil Twilight 6:23 AM EST 5:55 PM EST
Nautical Twilight 5:54 AM EST 6:24 PM EST
Astronomical Twilight 5:26 AM EST 6:52 PM EST
Moon 8:37 AM EST (11/15) 7:25 PM EST (11/15)
Length of Visible Light 11h 32m
Length of Day
10h 42m
Waxing Crescent, 5% of the Moon is Illuminated
Nov 15
Waxing Crescent
Nov 20
First Quarter
Nov 28
Full
Dec 6
Last Quarter
Dec 13
New

Hourly Weather History & Observations

Time (EST) Temp. Dew Point Humidity Pressure Visibility Wind Dir Wind Speed Gust Speed Precip Events Conditions
12:53 AM 64.9 °F 63.0 °F 93% - 7.0 mi North 5.8 mph - N/A   Overcast
1:53 AM 64.9 °F 63.0 °F 93% - 8.0 mi NNW 6.9 mph - N/A   Overcast
2:53 AM 64.9 °F 63.0 °F 93% - 8.0 mi NNW 4.6 mph - N/A   Overcast
3:53 AM 64.0 °F 62.1 °F 93% - 6.0 mi NNW 6.9 mph - N/A   Overcast
4:53 AM 64.0 °F 62.1 °F 93% - 4.0 mi NNW 6.9 mph - N/A   Overcast
5:23 AM 64.4 °F 62.6 °F 94% - 2.0 mi NNW 5.8 mph - N/A   Overcast
5:38 AM 62.6 °F 62.6 °F 100% - 4.0 mi North 6.9 mph - N/A   Overcast
5:53 AM 63.0 °F 61.0 °F 93% - 4.0 mi North 5.8 mph - N/A   Overcast
6:12 AM 62.6 °F 60.8 °F 94% - 2.0 mi NW 8.1 mph - N/A   Overcast
6:24 AM 62.6 °F 60.8 °F 94% 30.11 in 4.0 mi NW 8.1 mph - N/A   Overcast
6:53 AM 63.0 °F 61.0 °F 93% 30.11 in 7.0 mi NNW 6.9 mph - N/A   Overcast
7:53 AM 63.0 °F 61.0 °F 93% 30.13 in 6.0 mi NNW 5.8 mph - N/A   Overcast
8:53 AM 64.0 °F 62.1 °F 93% 30.15 in 6.0 mi NNW 5.8 mph - N/A   Overcast
9:53 AM 64.0 °F 61.0 °F 90% 30.17 in 6.0 mi NNW 8.1 mph - N/A   Overcast
10:28 AM 64.4 °F 60.8 °F 88% 30.17 in 9.0 mi North 8.1 mph - N/A   Overcast
10:53 AM 64.9 °F 61.0 °F 87% 30.16 in 10.0 mi North 8.1 mph - N/A   Overcast
11:53 AM 64.9 °F 61.0 °F 87% 30.14 in 10.0 mi North 8.1 mph - N/A   Overcast
12:50 PM 62.6 °F 60.8 °F 94% 30.13 in 2.0 mi North 10.4 mph - N/A   Overcast
12:53 PM 63.0 °F 60.1 °F 90% 30.13 in 2.0 mi North 9.2 mph - N/A   Overcast
1:02 PM 62.6 °F 60.8 °F 94% 30.13 in 1.5 mi North 8.1 mph - N/A   Overcast
1:28 PM 62.6 °F 60.8 °F 94% 30.12 in 1.8 mi NNE 11.5 mph - N/A   Overcast
1:40 PM 62.6 °F 59.0 °F 88% 30.12 in 2.5 mi North 9.2 mph - N/A   Overcast
1:48 PM 62.6 °F 59.0 °F 88% 30.12 in 3.0 mi NNE 9.2 mph - N/A   Overcast
1:53 PM 62.1 °F 59.0 °F 90% 30.12 in 4.0 mi North 8.1 mph - N/A   Overcast
2:03 PM 62.6 °F 59.0 °F 88% 30.12 in 6.0 mi North 9.2 mph - N/A   Overcast
2:53 PM 62.1 °F 57.0 °F 84% 30.12 in 6.0 mi NNE 10.4 mph - N/A   Haze
3:53 PM 61.0 °F 57.0 °F 87% 30.12 in 6.0 mi North 6.9 mph - N/A   Overcast
4:53 PM 61.0 °F 57.0 °F 87% 30.13 in 9.0 mi North 10.4 mph - N/A   Overcast
5:53 PM 61.0 °F 57.0 °F 87% 30.13 in 6.0 mi North 6.9 mph - N/A   Overcast
6:53 PM 61.0 °F 57.0 °F 87% 30.14 in 10.0 mi North 8.1 mph - N/A   Overcast
7:53 PM 60.1 °F 57.0 °F 90% 30.15 in 10.0 mi North 6.9 mph - N/A   Overcast
8:21 PM 60.8 °F 55.4 °F 82% 30.15 in 10.0 mi NNW 5.8 mph - N/A   Overcast
8:53 PM 59.0 °F 55.9 °F 90% 30.16 in 9.0 mi NW 9.2 mph - N/A   Mostly Cloudy
9:02 PM 59.0 °F 55.4 °F 88% 30.16 in 9.0 mi NNW 10.4 mph - N/A   Scattered Clouds
9:11 PM 60.8 °F 55.4 °F 82% 30.16 in 10.0 mi NNW 8.1 mph - N/A   Mostly Cloudy
9:20 PM 60.8 °F 55.4 °F 82% 30.16 in 10.0 mi NNW 9.2 mph - N/A   Mostly Cloudy
9:53 PM 59.0 °F 55.9 °F 90% 30.16 in 10.0 mi NNW 9.2 mph - N/A   Mostly Cloudy
10:53 PM 59.0 °F 55.0 °F 87% 30.16 in 10.0 mi NNW 11.5 mph - N/A   Overcast
11:53 PM 59.0 °F 55.0 °F 87% 30.15 in 10.0 mi North 12.7 mph - N/A   Overcast